SVA941 OEJN-EBBR

Flight info

Callsign SVA941
Flight time 5h 59m
Altitude 34000
Route BOMOX M686 OTEMO T55 KUNKI/N0476F360 P751 TAKRI N710 KIVIL L613 MMA P751 METRU DCT LINGI DCT SAMAZ UM872 KFN UN732 KRK UL995 TIGRA DCT NUCRE DCT RIVAM DCT BUSER DCT ROKIB DCT NAXAV DCT UNIMI DCT MOGTI DCT KPT L608 KUNOD DCT IDOVI Z104 GESLO N852 LNO
Aircraft MD11/H-SDE1E2E3FGHIJ2J3J4J5M1RWXY/LB1D1

Departure

Time 2026-05-04 12:14
Airport King Abdulaziz International Airport (OEJN)

Arrival

Time 2026-05-04 18:13
Airport Brussels Airport (EBBR)
Time Latitude Longitude Altitude Speed Heading
2026-05-04 11:58 21.67307 39.13625 28 ft 0 kts 162°
2026-05-04 12:00 21.67292 39.13630 27 ft 7 kts 162°
2026-05-04 12:00 21.67216 39.13675 30 ft 18 kts 154°
2026-05-04 12:01 21.67064 39.13739 30 ft 25 kts 160°
2026-05-04 12:01 21.67024 39.13789 30 ft 10 kts 95°
2026-05-04 12:02 21.67425 39.14980 38 ft 29 kts 69°
2026-05-04 12:03 21.67510 39.15225 38 ft 29 kts 69°
2026-05-04 12:03 21.67563 39.15380 38 ft 34 kts 71°
2026-05-04 12:03 21.67629 39.15572 40 ft 22 kts 68°
2026-05-04 12:03 21.67618 39.15716 42 ft 20 kts 133°
2026-05-04 12:04 21.67530 39.15834 42 ft 12 kts 130°
2026-05-04 12:04 21.67455 39.15926 42 ft 20 kts 131°
2026-05-04 12:04 21.67353 39.16066 42 ft 29 kts 128°
2026-05-04 12:04 21.67296 39.16167 42 ft 5 kts 80°
2026-05-04 12:05 21.67337 39.16192 42 ft 11 kts
2026-05-04 12:05 21.67432 39.16169 41 ft 15 kts 343°
2026-05-04 12:05 21.67549 39.16123 41 ft 20 kts 337°
2026-05-04 12:05 21.67602 39.16127 41 ft 5 kts 36°
2026-05-04 12:06 21.67631 39.16177 41 ft 11 kts 66°
2026-05-04 12:06 21.67671 39.16274 41 ft 17 kts 71°
2026-05-04 12:06 21.67712 39.16414 43 ft 22 kts 72°
2026-05-04 12:06 21.67770 39.16585 45 ft 27 kts 69°
2026-05-04 12:07 21.67838 39.16787 49 ft 31 kts 70°
2026-05-04 12:07 21.67916 39.17012 53 ft 32 kts 69°
2026-05-04 12:07 21.67981 39.17195 50 ft 20 kts 69°
2026-05-04 12:07 21.67989 39.17250 52 ft 13 kts 97°
2026-05-04 12:08 21.67980 39.17269 54 ft 10 kts 121°
2026-05-04 12:08 21.67953 39.17296 50 ft 6 kts 147°
2026-05-04 12:08 21.67912 39.17316 54 ft 8 kts 160°
2026-05-04 12:08 21.67849 39.17340 53 ft 11 kts 160°
2026-05-04 12:09 21.67766 39.17373 53 ft 14 kts 160°
2026-05-04 12:09 21.67662 39.17413 52 ft 17 kts 160°
2026-05-04 12:09 21.67537 39.17462 54 ft 20 kts 159°
2026-05-04 12:09 21.67394 39.17519 54 ft 23 kts 159°
2026-05-04 12:10 21.67234 39.17583 58 ft 25 kts 160°
2026-05-04 12:10 21.67073 39.17645 56 ft 23 kts 160°
2026-05-04 12:10 21.66911 39.17710 55 ft 26 kts 160°
2026-05-04 12:10 21.66759 39.17771 59 ft 21 kts 159°
2026-05-04 12:11 21.66641 39.17819 55 ft 13 kts 149°
2026-05-04 12:11 21.66622 39.17907 61 ft 14 kts 74°
2026-05-04 12:11 21.66655 39.18002 58 ft 3 kts 68°
2026-05-04 12:11 21.66672 39.18022 57 ft 4 kts 36°
2026-05-04 12:12 21.66704 39.18023 63 ft 6 kts 351°
2026-05-04 12:12 21.66749 39.18008 58 ft 0 kts 339°
2026-05-04 12:12 21.66786 39.17993 57 ft 29 kts 339°
2026-05-04 12:13 21.67244 39.17812 56 ft 108 kts 341°
2026-05-04 12:14 21.75764 39.15075 3922 ft 211 kts 342°
2026-05-04 12:15 21.77179 39.14573 4579 ft 218 kts 345°
2026-05-04 12:15 21.78660 39.14380 5214 ft 216 kts 13°
2026-05-04 12:15 21.79965 39.15146 5899 ft 219 kts 33°
2026-05-04 12:15 21.81379 39.15731 6455 ft 219 kts
2026-05-04 12:16 21.82928 39.15597 6820 ft 233 kts 359°
2026-05-04 12:16 21.84556 39.15997 6960 ft 253 kts 27°
2026-05-04 12:16 21.85922 39.17304 7101 ft 275 kts 53°
2026-05-04 12:16 21.86830 39.19193 7381 ft 291 kts 64°
2026-05-04 12:17 21.87704 39.21174 8173 ft 294 kts 61°
2026-05-04 12:17 21.88718 39.23108 8963 ft 299 kts 58°
2026-05-04 12:17 21.89870 39.24995 9711 ft 304 kts 55°
2026-05-04 12:17 21.91134 39.26857 10238 ft 317 kts 53°
2026-05-04 12:18 21.92665 39.28657 10344 ft 343 kts 37°
2026-05-04 12:18 21.94917 39.29775 10506 ft 368 kts 10°
2026-05-04 12:18 21.97499 39.29802 11050 ft 375 kts 349°
2026-05-04 12:18 21.99973 39.28958 11681 ft 380 kts 335°
2026-05-04 12:19 22.02406 39.27731 12339 ft 386 kts 332°
2026-05-04 12:19 22.04832 39.26428 12967 ft 391 kts 328°
2026-05-04 12:19 22.07073 39.24784 13685 ft 390 kts 315°
2026-05-04 12:19 22.08820 39.22582 14352 ft 386 kts 301°
2026-05-04 12:20 22.10218 39.20108 15041 ft 385 kts 296°
2026-05-04 12:20 22.11496 39.17569 15738 ft 385 kts 295°
2026-05-04 12:20 22.12749 39.15037 16404 ft 386 kts 296°
2026-05-04 12:20 22.14043 39.12465 17045 ft 388 kts 297°
2026-05-04 12:21 22.15352 39.09916 17669 ft 390 kts 297°
2026-05-04 12:21 22.16688 39.07353 18229 ft 392 kts 298°
2026-05-04 12:21 22.18041 39.04784 18715 ft 395 kts 298°
2026-05-04 12:21 22.19406 39.02203 19172 ft 398 kts 298°
2026-05-04 12:22 22.20780 38.99612 19634 ft 401 kts 298°
2026-05-04 12:22 22.22179 38.96976 20064 ft 404 kts 298°
2026-05-04 12:22 22.23580 38.94335 20508 ft 407 kts 298°
2026-05-04 12:22 22.24989 38.91679 20967 ft 410 kts 298°
2026-05-04 12:23 22.26417 38.88987 21416 ft 413 kts 298°
2026-05-04 12:23 22.27853 38.86282 21870 ft 416 kts 298°
2026-05-04 12:23 22.29295 38.83568 22347 ft 419 kts 298°
2026-05-04 12:23 22.30750 38.80832 22823 ft 422 kts 298°
2026-05-04 12:24 22.32195 38.78113 23298 ft 425 kts 298°
2026-05-04 12:24 22.33672 38.75335 23747 ft 427 kts 298°
2026-05-04 12:24 22.35150 38.72554 24207 ft 428 kts 297°
2026-05-04 12:24 22.36631 38.69754 24662 ft 430 kts 297°
2026-05-04 12:25 22.38115 38.66941 25128 ft 432 kts 297°
2026-05-04 12:25 22.39604 38.64116 25590 ft 434 kts 296°
2026-05-04 12:25 22.41101 38.61273 26052 ft 436 kts 296°
2026-05-04 12:25 22.42604 38.58418 26508 ft 438 kts 296°
2026-05-04 12:26 22.44111 38.55555 26947 ft 440 kts 296°
2026-05-04 12:26 22.45628 38.52672 27401 ft 442 kts 296°
2026-05-04 12:26 22.47149 38.49780 27830 ft 444 kts 296°
2026-05-04 12:26 22.48755 38.46909 28219 ft 449 kts 301°
2026-05-04 12:27 22.50806 38.44334 28651 ft 458 kts 311°
2026-05-04 12:27 22.53201 38.42045 29036 ft 464 kts 315°
2026-05-04 12:27 22.55767 38.39871 29422 ft 468 kts 317°
2026-05-04 12:27 22.58360 38.37745 29854 ft 469 kts 317°
2026-05-04 12:28 22.60957 38.35602 30303 ft 468 kts 316°
2026-05-04 12:28 22.63524 38.33446 30749 ft 466 kts 316°
2026-05-04 12:28 22.66064 38.31276 31191 ft 464 kts 315°
2026-05-04 12:28 22.68573 38.29109 31623 ft 462 kts 315°
2026-05-04 12:29 22.71074 38.26934 32046 ft 460 kts 315°
2026-05-04 12:29 22.73547 38.24777 32452 ft 458 kts 314°
2026-05-04 12:29 22.76043 38.22598 32833 ft 457 kts 314°
2026-05-04 12:29 22.78515 38.20438 33212 ft 456 kts 314°
2026-05-04 12:30 22.80982 38.18284 33599 ft 454 kts 314°
2026-05-04 12:30 22.83437 38.16139 33802 ft 455 kts 314°
2026-05-04 12:30 22.88372 38.11825 33847 ft 456 kts 314°
2026-05-04 12:31 22.93281 38.07531 33856 ft 456 kts 314°
2026-05-04 12:31 22.98224 38.03205 33848 ft 456 kts 314°
2026-05-04 12:32 23.05627 37.96718 33857 ft 456 kts 314°
2026-05-04 12:33 23.10557 37.92392 33851 ft 456 kts 313°
2026-05-04 12:33 23.15490 37.88057 33859 ft 456 kts 313°
2026-05-04 12:34 23.20410 37.83717 33858 ft 455 kts 313°
2026-05-04 12:34 23.25332 37.79378 33856 ft 456 kts 313°
2026-05-04 12:35 23.30257 37.75037 33861 ft 456 kts 313°
2026-05-04 12:35 23.35180 37.70695 33860 ft 456 kts 313°
2026-05-04 12:36 23.40102 37.66344 33857 ft 456 kts 313°
2026-05-04 12:36 23.45022 37.61990 33859 ft 456 kts 313°
2026-05-04 12:37 23.49953 37.57626 33859 ft 456 kts 313°
2026-05-04 12:37 23.54879 37.53263 33864 ft 456 kts 313°
2026-05-04 12:38 23.59806 37.48895 33863 ft 457 kts 313°
2026-05-04 12:38 23.64737 37.44518 33862 ft 457 kts 313°
2026-05-04 12:39 23.69660 37.40143 33866 ft 457 kts 313°
2026-05-04 12:39 23.74586 37.35762 33865 ft 457 kts 313°
2026-05-04 12:40 23.79481 37.31404 33859 ft 457 kts 313°
2026-05-04 12:40 23.84403 37.27017 33868 ft 456 kts 312°
2026-05-04 12:41 23.89317 37.22634 33872 ft 456 kts 312°
2026-05-04 12:41 23.94230 37.18246 33878 ft 456 kts 312°
2026-05-04 12:42 23.99145 37.13849 33877 ft 456 kts 312°
2026-05-04 12:42 24.04046 37.09448 33881 ft 456 kts 312°
2026-05-04 12:43 24.08950 37.05048 33881 ft 456 kts 312°
2026-05-04 12:43 24.13857 37.00646 33888 ft 456 kts 312°
2026-05-04 12:44 24.18759 36.96246 33890 ft 456 kts 312°
2026-05-04 12:44 24.23654 36.91848 33888 ft 455 kts 311°
2026-05-04 12:45 24.28551 36.87443 33883 ft 455 kts 311°
2026-05-04 12:45 24.33432 36.83049 33894 ft 454 kts 311°
2026-05-04 12:46 24.38308 36.78655 33894 ft 453 kts 311°
2026-05-04 12:46 24.43173 36.74266 33897 ft 452 kts 311°
2026-05-04 12:47 24.48000 36.69905 33899 ft 451 kts 311°
2026-05-04 12:47 24.52840 36.65530 33899 ft 451 kts 311°
2026-05-04 12:48 24.57675 36.61154 33899 ft 450 kts 311°
2026-05-04 12:48 24.62132 36.56479 33899 ft 433 kts 298°
2026-05-04 12:48 24.63693 36.53717 33906 ft 420 kts 288°
2026-05-04 12:49 24.64781 36.50762 33905 ft 415 kts 283°
2026-05-04 12:49 24.66494 36.44727 33905 ft 413 kts 281°
2026-05-04 12:50 24.68210 36.38684 33905 ft 414 kts 282°
2026-05-04 12:50 24.69703 36.33686 33910 ft 414 kts 282°
2026-05-04 12:51 24.71536 36.27673 33907 ft 414 kts 282°
2026-05-04 12:51 24.73374 36.21669 33909 ft 414 kts 282°
2026-05-04 12:52 24.75209 36.15667 33914 ft 414 kts 282°
2026-05-04 12:52 24.77040 36.09666 33912 ft 414 kts 282°
2026-05-04 12:53 24.78868 36.03661 33913 ft 414 kts 282°
2026-05-04 12:53 24.80692 35.97661 33912 ft 414 kts 282°
2026-05-04 12:54 24.82514 35.91659 33913 ft 414 kts 282°
2026-05-04 12:54 24.84335 35.85649 33916 ft 414 kts 282°
2026-05-04 12:55 24.86154 35.79635 33918 ft 414 kts 282°
2026-05-04 12:55 24.87961 35.73654 33919 ft 414 kts 282°
2026-05-04 12:56 24.89789 35.67590 33918 ft 414 kts 282°
2026-05-04 12:56 24.91577 35.61603 33919 ft 414 kts 282°
2026-05-04 12:57 24.93378 35.55569 33919 ft 414 kts 282°
2026-05-04 12:57 24.95182 35.49542 33927 ft 414 kts 283°
2026-05-04 12:58 24.96988 35.43512 33930 ft 414 kts 283°
2026-05-04 12:58 24.98795 35.37473 33918 ft 414 kts 283°
2026-05-04 12:59 25.00596 35.31441 33929 ft 414 kts 283°
2026-05-04 12:59 25.02396 35.25402 33929 ft 414 kts 283°
2026-05-04 13:00 25.04191 35.19371 33925 ft 414 kts 283°
2026-05-04 13:00 25.06529 35.13529 33931 ft 425 kts 297°
2026-05-04 13:01 25.10550 35.08589 33932 ft 438 kts 308°
2026-05-04 13:01 25.15001 35.03978 33938 ft 439 kts 308°
2026-05-04 13:02 25.19396 34.99318 33936 ft 437 kts 308°
2026-05-04 13:02 25.23722 34.94602 33944 ft 437 kts 307°
2026-05-04 13:03 25.28027 34.89864 33946 ft 436 kts 307°
2026-05-04 13:03 25.32322 34.85129 33954 ft 436 kts 307°
2026-05-04 13:04 25.36616 34.80393 33964 ft 436 kts 307°
2026-05-04 13:04 25.40913 34.75651 33963 ft 436 kts 307°
2026-05-04 13:05 25.45203 34.70911 33967 ft 436 kts 307°
2026-05-04 13:05 25.49488 34.66170 33974 ft 436 kts 307°
2026-05-04 13:06 25.53748 34.61454 33967 ft 435 kts 307°
2026-05-04 13:06 25.58027 34.56711 33969 ft 435 kts 307°
2026-05-04 13:07 25.62203 34.51888 33969 ft 432 kts 304°
2026-05-04 13:07 25.66095 34.46840 33983 ft 430 kts 302°
2026-05-04 13:08 25.69935 34.41762 33969 ft 430 kts 302°
2026-05-04 13:08 25.73787 34.36696 33976 ft 429 kts 303°
2026-05-04 13:09 25.77641 34.31644 33977 ft 429 kts 303°
2026-05-04 13:09 25.81494 34.26594 33982 ft 428 kts 303°
2026-05-04 13:10 25.85344 34.21543 33981 ft 428 kts 303°
2026-05-04 13:10 25.89189 34.16492 33980 ft 428 kts 303°
2026-05-04 13:11 25.93032 34.11442 33977 ft 428 kts 303°
2026-05-04 13:11 25.96883 34.06389 33978 ft 428 kts 302°
2026-05-04 13:12 26.00734 34.01340 33978 ft 428 kts 303°
2026-05-04 13:12 26.04586 33.96288 33980 ft 428 kts 303°
2026-05-04 13:13 26.08406 33.91271 33977 ft 428 kts 303°
2026-05-04 13:13 26.12243 33.86226 33980 ft 428 kts 303°
2026-05-04 13:14 26.16090 33.81164 33982 ft 427 kts 303°
2026-05-04 13:14 26.19927 33.76108 33984 ft 427 kts 303°
2026-05-04 13:15 26.23748 33.71067 33981 ft 427 kts 303°
2026-05-04 13:15 26.27600 33.65982 33983 ft 427 kts 303°
2026-05-04 13:16 26.31429 33.60919 33981 ft 427 kts 303°
2026-05-04 13:16 26.35257 33.55851 33986 ft 428 kts 303°
2026-05-04 13:17 26.39088 33.50774 33988 ft 427 kts 303°
2026-05-04 13:17 26.42908 33.45707 33989 ft 427 kts 303°
2026-05-04 13:18 26.46728 33.40618 33993 ft 427 kts 303°
2026-05-04 13:18 26.50536 33.35533 33995 ft 427 kts 303°
2026-05-04 13:19 26.54353 33.30447 33994 ft 427 kts 303°
2026-05-04 13:19 26.58167 33.25365 33981 ft 427 kts 303°
2026-05-04 13:20 26.61957 33.20311 33989 ft 427 kts 303°
2026-05-04 13:20 26.65765 33.15226 33994 ft 427 kts 303°
2026-05-04 13:21 26.69570 33.10139 33991 ft 426 kts 303°
2026-05-04 13:21 26.73374 33.05049 33991 ft 426 kts 303°
2026-05-04 13:22 26.77174 32.99958 33991 ft 426 kts 303°
2026-05-04 13:22 26.80968 32.94868 33993 ft 426 kts 303°
2026-05-04 13:23 26.84758 32.89777 33994 ft 426 kts 303°
2026-05-04 13:23 26.88549 32.84681 33993 ft 425 kts 303°
2026-05-04 13:24 26.92323 32.79601 33995 ft 425 kts 303°
2026-05-04 13:24 26.96107 32.74501 33999 ft 425 kts 303°
2026-05-04 13:25 27.01759 32.66845 34004 ft 425 kts 303°
2026-05-04 13:25 27.05526 32.61738 34010 ft 425 kts 303°
2026-05-04 13:26 27.09301 32.56626 34007 ft 425 kts 303°
2026-05-04 13:26 27.13052 32.51544 34010 ft 425 kts 303°
2026-05-04 13:27 27.16847 32.46397 34011 ft 425 kts 303°
2026-05-04 13:27 27.20616 32.41280 34016 ft 425 kts 303°
2026-05-04 13:28 27.24388 32.36152 34020 ft 425 kts 303°
2026-05-04 13:28 27.28150 32.31032 34020 ft 425 kts 303°
2026-05-04 13:29 27.31814 32.25880 34027 ft 424 kts 302°
2026-05-04 13:29 27.35397 32.20620 34033 ft 423 kts 301°
2026-05-04 13:30 27.38971 32.15355 34041 ft 423 kts 301°
2026-05-04 13:30 27.42551 32.10092 34045 ft 423 kts 301°
2026-05-04 13:31 27.46130 32.04831 34039 ft 423 kts 301°
2026-05-04 13:31 27.49706 31.99570 34049 ft 423 kts 301°
2026-05-04 13:32 27.53281 31.94305 34054 ft 423 kts 301°
2026-05-04 13:32 27.56851 31.89040 34052 ft 423 kts 301°
2026-05-04 13:33 27.60414 31.83780 34068 ft 422 kts 301°
2026-05-04 13:33 27.63978 31.78511 34071 ft 422 kts 301°
2026-05-04 13:34 27.67535 31.73248 34070 ft 422 kts 301°
2026-05-04 13:34 27.71086 31.67985 34069 ft 422 kts 301°
2026-05-04 13:35 27.76407 31.60087 34079 ft 421 kts 301°
2026-05-04 13:36 27.79950 31.54820 34077 ft 421 kts 301°
2026-05-04 13:36 27.83452 31.49582 34081 ft 420 kts 301°
2026-05-04 13:37 27.86970 31.44320 34081 ft 420 kts 301°
2026-05-04 13:37 27.90496 31.39054 34078 ft 420 kts 301°
2026-05-04 13:38 27.94042 31.33758 34081 ft 419 kts 301°
2026-05-04 13:38 27.97539 31.28527 34081 ft 419 kts 301°
2026-05-04 13:39 28.01051 31.23269 34077 ft 419 kts 301°
2026-05-04 13:39 28.04534 31.18048 34080 ft 419 kts 301°
2026-05-04 13:40 28.08064 31.12751 34078 ft 418 kts 301°
2026-05-04 13:40 28.10998 31.08341 34074 ft 418 kts 301°
2026-05-04 13:41 28.14463 31.03110 34077 ft 417 kts 300°
2026-05-04 13:41 28.17748 30.97657 34073 ft 415 kts 298°
2026-05-04 13:42 28.22490 30.89449 34050 ft 415 kts 298°
2026-05-04 13:42 28.25661 30.83981 34049 ft 415 kts 298°
2026-05-04 13:43 28.28837 30.78514 34048 ft 415 kts 298°
2026-05-04 13:43 28.31992 30.73082 34047 ft 415 kts 298°
2026-05-04 13:44 28.35160 30.67619 34051 ft 415 kts 298°
2026-05-04 13:44 28.38334 30.62139 34056 ft 415 kts 298°
2026-05-04 13:45 28.41502 30.56662 34056 ft 415 kts 298°
2026-05-04 13:45 28.44670 30.51178 34058 ft 415 kts 298°
2026-05-04 13:46 28.47833 30.45694 34060 ft 415 kts 298°
2026-05-04 13:46 28.50995 30.40207 34061 ft 415 kts 298°
2026-05-04 13:47 28.54158 30.34712 34061 ft 415 kts 298°
2026-05-04 13:47 28.57312 30.29223 34066 ft 415 kts 298°
2026-05-04 13:48 28.60462 30.23732 34067 ft 414 kts 298°
2026-05-04 13:48 28.63596 30.18228 34072 ft 414 kts 298°
2026-05-04 13:49 28.66733 30.12727 34077 ft 414 kts 298°
2026-05-04 13:49 28.69867 30.07240 34063 ft 413 kts 298°
2026-05-04 13:50 28.73003 30.01747 34063 ft 413 kts 298°
2026-05-04 13:50 28.76132 29.96259 34064 ft 413 kts 298°
2026-05-04 13:51 28.79253 29.90779 34065 ft 412 kts 298°
2026-05-04 13:51 28.82350 29.85333 34066 ft 411 kts 298°
2026-05-04 13:52 28.87008 29.77129 34067 ft 411 kts 298°
2026-05-04 13:53 28.90111 29.71655 34069 ft 410 kts 298°
2026-05-04 13:53 28.93202 29.66195 34069 ft 410 kts 298°
2026-05-04 13:54 28.97837 29.57993 34067 ft 409 kts 298°
2026-05-04 13:55 29.02458 29.49802 34071 ft 408 kts 298°
2026-05-04 13:55 29.07053 29.41620 34073 ft 408 kts 297°
2026-05-04 13:56 29.10114 29.36159 34072 ft 408 kts 299°
2026-05-04 13:56 29.14050 29.31382 34071 ft 421 kts 314°
2026-05-04 13:57 29.16376 29.29327 34078 ft 423 kts 316°
2026-05-04 13:58 29.25842 29.21323 34071 ft 422 kts 315°
2026-05-04 13:58 29.32839 29.15218 34078 ft 421 kts 315°
2026-05-04 13:59 29.37489 29.11135 34079 ft 421 kts 315°
2026-05-04 14:00 29.43951 29.04618 34069 ft 409 kts 303°
2026-05-04 14:00 29.49131 28.96813 34077 ft 406 kts 301°
2026-05-04 14:01 29.52530 28.91625 34077 ft 407 kts 301°
2026-05-04 14:02 29.57674 28.83897 34078 ft 406 kts 302°
2026-05-04 14:02 29.61086 28.78786 34079 ft 406 kts 302°
2026-05-04 14:03 29.64940 28.73990 34079 ft 415 kts 312°
2026-05-04 14:03 29.69501 28.69865 34079 ft 418 kts 315°
2026-05-04 14:04 29.76452 28.63794 34082 ft 418 kts 315°
2026-05-04 14:04 29.81050 28.59697 34085 ft 418 kts 314°
2026-05-04 14:05 29.87921 28.53528 34078 ft 418 kts 314°
2026-05-04 14:06 29.92500 28.49408 34086 ft 418 kts 314°
2026-05-04 14:06 29.97080 28.45282 34085 ft 418 kts 314°
2026-05-04 14:07 30.01664 28.41149 34086 ft 418 kts 314°
2026-05-04 14:07 30.06245 28.37014 34086 ft 418 kts 314°
2026-05-04 14:08 30.10821 28.32878 34088 ft 418 kts 314°
2026-05-04 14:08 30.15393 28.28741 34093 ft 417 kts 314°
2026-05-04 14:09 30.22251 28.22525 34096 ft 417 kts 314°
2026-05-04 14:10 30.29094 28.16309 34091 ft 417 kts 314°
2026-05-04 14:10 30.33645 28.12151 34098 ft 416 kts 314°
2026-05-04 14:11 30.38189 28.08003 34104 ft 416 kts 315°
2026-05-04 14:11 30.45009 28.01780 34104 ft 416 kts 315°
2026-05-04 14:12 30.49555 27.97628 34106 ft 416 kts 315°
2026-05-04 14:13 30.56364 27.91401 34101 ft 415 kts 315°
2026-05-04 14:13 30.60896 27.87249 34099 ft 415 kts 315°
2026-05-04 14:14 30.65415 27.83105 34102 ft 414 kts 315°
2026-05-04 14:14 30.72193 27.76878 34116 ft 414 kts 315°
2026-05-04 14:15 30.81173 27.68611 34116 ft 413 kts 315°
2026-05-04 14:16 30.87920 27.62387 34121 ft 412 kts 315°
2026-05-04 14:17 30.94652 27.56162 34124 ft 412 kts 315°
2026-05-04 14:18 31.01379 27.49903 34127 ft 412 kts 315°
2026-05-04 14:19 31.10359 27.41563 34137 ft 413 kts 315°
2026-05-04 14:19 31.14860 27.37378 34146 ft 414 kts 315°
2026-05-04 14:20 31.19368 27.33181 34152 ft 414 kts 316°
2026-05-04 14:20 31.23973 27.29111 34159 ft 418 kts 320°
2026-05-04 14:21 31.31322 27.23558 34161 ft 420 kts 322°
2026-05-04 14:21 31.36240 27.19893 34159 ft 420 kts 322°
2026-05-04 14:22 31.41162 27.16196 34162 ft 420 kts 322°
2026-05-04 14:22 31.46074 27.12490 34158 ft 420 kts 322°
2026-05-04 14:23 31.53417 27.06938 34142 ft 420 kts 322°
2026-05-04 14:24 31.58330 27.03218 34140 ft 420 kts 322°
2026-05-04 14:24 31.63271 26.99472 34136 ft 420 kts 322°
2026-05-04 14:25 31.68142 26.95775 34132 ft 419 kts 322°
2026-05-04 14:25 31.75515 26.90170 34130 ft 419 kts 322°
2026-05-04 14:26 31.80365 26.86476 34131 ft 418 kts 322°
2026-05-04 14:26 31.84452 26.83360 34128 ft 418 kts 322°
2026-05-04 14:27 31.89326 26.79640 34130 ft 418 kts 322°
2026-05-04 14:27 31.94988 26.75300 34128 ft 418 kts 322°
2026-05-04 14:28 31.99037 26.72187 34129 ft 418 kts 322°
2026-05-04 14:28 32.03909 26.68448 34127 ft 418 kts 321°
2026-05-04 14:29 32.13669 26.60953 34129 ft 419 kts 321°
2026-05-04 14:30 32.18556 26.57194 34124 ft 419 kts 321°
2026-05-04 14:31 32.25876 26.51554 34131 ft 419 kts 321°
2026-05-04 14:32 32.35619 26.44030 34128 ft 418 kts 321°
2026-05-04 14:32 32.40486 26.40264 34125 ft 417 kts 321°
2026-05-04 14:33 32.45333 26.36509 34127 ft 417 kts 322°
2026-05-04 14:33 32.50177 26.32750 34128 ft 416 kts 322°
2026-05-04 14:34 32.55018 26.28990 34129 ft 415 kts 322°
2026-05-04 14:34 32.59845 26.25235 34130 ft 414 kts 322°
2026-05-04 14:35 32.64618 26.21507 34125 ft 413 kts 322°
2026-05-04 14:35 32.69414 26.17751 34124 ft 413 kts 322°
2026-05-04 14:36 32.74203 26.14005 34127 ft 412 kts 322°
2026-05-04 14:36 32.78989 26.10261 34129 ft 411 kts 322°
2026-05-04 14:37 32.83763 26.06524 34126 ft 410 kts 322°
2026-05-04 14:37 32.88523 26.02792 34128 ft 410 kts 322°
2026-05-04 14:38 32.93279 25.99058 34126 ft 410 kts 322°
2026-05-04 14:38 32.98046 25.95311 34125 ft 410 kts 322°
2026-05-04 14:39 33.02801 25.91568 34128 ft 409 kts 322°
2026-05-04 14:39 33.07552 25.87825 34129 ft 409 kts 322°
2026-05-04 14:40 33.14667 25.82207 34128 ft 409 kts 322°
2026-05-04 14:40 33.19352 25.78504 34127 ft 408 kts 322°
2026-05-04 14:41 33.24058 25.74777 34126 ft 408 kts 322°
2026-05-04 14:42 33.33561 25.67230 34128 ft 406 kts 322°
2026-05-04 14:42 33.38263 25.63475 34125 ft 406 kts 322°
2026-05-04 14:43 33.42957 25.59731 34123 ft 405 kts 322°
2026-05-04 14:43 33.47647 25.55991 34127 ft 405 kts 322°
2026-05-04 14:44 33.52326 25.52257 34133 ft 404 kts 322°
2026-05-04 14:44 33.56994 25.48527 34132 ft 403 kts 322°
2026-05-04 14:45 33.61633 25.44815 34119 ft 403 kts 322°
2026-05-04 14:45 33.66289 25.41084 34130 ft 402 kts 322°
2026-05-04 14:46 33.70937 25.37355 34122 ft 402 kts 322°
2026-05-04 14:46 33.75580 25.33625 34125 ft 401 kts 322°
2026-05-04 14:47 33.80215 25.29897 34122 ft 401 kts 322°
2026-05-04 14:47 33.84843 25.26169 34120 ft 400 kts 322°
2026-05-04 14:48 33.89459 25.22446 34130 ft 399 kts 322°
2026-05-04 14:48 33.94075 25.18718 34122 ft 399 kts 322°
2026-05-04 14:49 33.98677 25.14997 34123 ft 398 kts 322°
2026-05-04 14:49 34.03253 25.11239 34114 ft 397 kts 319°
2026-05-04 14:50 34.07379 25.06878 34122 ft 394 kts 314°
2026-05-04 14:50 34.11308 25.02278 34118 ft 393 kts 314°
2026-05-04 14:51 34.15244 24.97679 34119 ft 393 kts 314°
2026-05-04 14:51 34.19192 24.93100 34124 ft 393 kts 314°
2026-05-04 14:52 34.23142 24.88529 34124 ft 393 kts 314°
2026-05-04 14:52 34.27095 24.83952 34123 ft 393 kts 314°
2026-05-04 14:53 34.31045 24.79373 34121 ft 393 kts 314°
2026-05-04 14:53 34.34990 24.74793 34122 ft 393 kts 314°
2026-05-04 14:54 34.38934 24.70207 34125 ft 393 kts 314°
2026-05-04 14:54 34.42875 24.65618 34124 ft 393 kts 314°
2026-05-04 14:55 34.46811 24.61030 34125 ft 393 kts 314°
2026-05-04 14:55 34.50745 24.56438 34123 ft 393 kts 314°
2026-05-04 14:56 34.54626 24.51782 34125 ft 392 kts 314°
2026-05-04 14:56 34.58480 24.47087 34123 ft 392 kts 314°
2026-05-04 14:57 34.62334 24.42393 34126 ft 392 kts 314°
2026-05-04 14:57 34.66162 24.37733 34125 ft 392 kts 314°
2026-05-04 14:58 34.70013 24.33041 34124 ft 392 kts 314°
2026-05-04 14:58 34.73863 24.28346 34118 ft 392 kts 314°
2026-05-04 14:59 34.77712 24.23645 34122 ft 392 kts 314°
2026-05-04 15:00 34.83479 24.16589 34122 ft 392 kts 314°
2026-05-04 15:00 34.87323 24.11877 34122 ft 392 kts 314°
2026-05-04 15:01 34.93096 24.04788 34117 ft 393 kts 314°
2026-05-04 15:01 34.96939 24.00041 34122 ft 393 kts 314°
2026-05-04 15:02 35.00766 23.95279 34125 ft 393 kts 314°
2026-05-04 15:02 35.04593 23.90522 34127 ft 393 kts 314°
2026-05-04 15:03 35.08426 23.85756 34123 ft 393 kts 314°
2026-05-04 15:03 35.12257 23.80989 34127 ft 394 kts 314°
2026-05-04 15:04 35.16095 23.76208 34131 ft 394 kts 314°
2026-05-04 15:04 35.19950 23.71416 34460 ft 397 kts 315°
2026-05-04 15:05 35.21976 23.69109 34719 ft 399 kts 317°
2026-05-04 15:05 35.24065 23.66867 34968 ft 400 kts 318°
2026-05-04 15:05 35.26136 23.64694 35199 ft 401 kts 319°
2026-05-04 15:05 35.28297 23.62440 35436 ft 401 kts 318°
2026-05-04 15:06 35.30426 23.60215 35670 ft 402 kts 318°
2026-05-04 15:06 35.32548 23.57989 35890 ft 404 kts 318°
2026-05-04 15:06 35.34687 23.55739 36093 ft 405 kts 318°
2026-05-04 15:07 35.38966 23.51225 36147 ft 406 kts 318°
2026-05-04 15:07 35.43239 23.46708 36148 ft 406 kts 318°
2026-05-04 15:08 35.47513 23.42183 36151 ft 406 kts 318°
2026-05-04 15:08 35.51784 23.37654 36135 ft 406 kts 318°
2026-05-04 15:09 35.56054 23.33119 36130 ft 406 kts 318°
2026-05-04 15:09 35.60321 23.28581 36130 ft 406 kts 318°
2026-05-04 15:10 35.66692 23.21794 36150 ft 406 kts 318°
2026-05-04 15:11 35.73082 23.14970 36133 ft 406 kts 318°
2026-05-04 15:11 35.77342 23.10413 36134 ft 405 kts 318°
2026-05-04 15:12 35.80905 23.06597 36131 ft 405 kts 318°
2026-05-04 15:12 35.85841 23.01282 36129 ft 405 kts 318°
2026-05-04 15:13 35.90085 22.96709 36126 ft 405 kts 318°
2026-05-04 15:13 35.93641 22.92884 36124 ft 405 kts 318°
2026-05-04 15:14 35.97822 22.88386 36128 ft 404 kts 318°
2026-05-04 15:14 36.02065 22.83816 36129 ft 405 kts 318°
2026-05-04 15:15 36.06306 22.79240 36131 ft 405 kts 318°
2026-05-04 15:15 36.10552 22.74653 36133 ft 405 kts 318°
2026-05-04 15:16 36.16918 22.67762 36130 ft 406 kts 318°
2026-05-04 15:17 36.23288 22.60852 36116 ft 406 kts 318°
2026-05-04 15:17 36.29661 22.53923 36105 ft 407 kts 319°
2026-05-04 15:18 36.33917 22.49287 36102 ft 407 kts 319°
2026-05-04 15:19 36.40300 22.42321 36101 ft 408 kts 319°
2026-05-04 15:19 36.46626 22.35391 36096 ft 408 kts 318°
2026-05-04 15:20 36.50929 22.30645 36112 ft 409 kts 318°
2026-05-04 15:20 36.55187 22.25958 36110 ft 409 kts 319°
2026-05-04 15:21 36.59450 22.21268 36114 ft 409 kts 319°
2026-05-04 15:22 36.65851 22.14218 36115 ft 410 kts 319°
2026-05-04 15:22 36.72254 22.07148 36112 ft 410 kts 319°
2026-05-04 15:23 36.76526 22.02423 36110 ft 410 kts 319°
2026-05-04 15:23 36.80769 21.97723 36112 ft 411 kts 319°
2026-05-04 15:24 36.89308 21.88241 36108 ft 411 kts 319°
2026-05-04 15:25 36.93577 21.83489 36110 ft 411 kts 319°
2026-05-04 15:26 36.99978 21.76350 36111 ft 411 kts 318°
2026-05-04 15:26 37.06377 21.69196 36111 ft 411 kts 319°
2026-05-04 15:27 37.12755 21.62010 36118 ft 411 kts 318°
2026-05-04 15:28 37.19138 21.54823 36129 ft 411 kts 319°
2026-05-04 15:29 37.25524 21.47633 36125 ft 411 kts 319°
2026-05-04 15:30 37.40432 21.30781 36125 ft 412 kts 318°
2026-05-04 15:31 37.46827 21.23523 36122 ft 413 kts 318°
2026-05-04 15:32 37.57493 21.11379 36126 ft 414 kts 318°
2026-05-04 15:34 37.68159 20.99188 36131 ft 414 kts 318°
2026-05-04 15:34 37.74540 20.91828 36129 ft 414 kts 318°
2026-05-04 15:35 37.80926 20.84467 36129 ft 414 kts 318°
2026-05-04 15:36 37.87317 20.77101 36129 ft 415 kts 318°
2026-05-04 15:36 37.91578 20.72180 36127 ft 415 kts 318°
2026-05-04 15:37 37.95836 20.67254 36141 ft 415 kts 318°
2026-05-04 15:37 38.00100 20.62314 36148 ft 415 kts 318°
2026-05-04 15:38 38.04338 20.57396 36155 ft 415 kts 318°
2026-05-04 15:38 38.08692 20.52504 36154 ft 415 kts 323°
2026-05-04 15:39 38.11151 20.50600 36157 ft 416 kts 334°
2026-05-04 15:39 38.13871 20.49329 36162 ft 418 kts 342°
2026-05-04 15:40 38.22389 20.46817 36155 ft 419 kts 345°
2026-05-04 15:40 38.28076 20.45121 36150 ft 419 kts 344°
2026-05-04 15:41 38.33729 20.43337 36140 ft 419 kts 344°
2026-05-04 15:41 38.39383 20.41520 36130 ft 419 kts 343°
2026-05-04 15:42 38.45035 20.39696 36122 ft 419 kts 343°
2026-05-04 15:42 38.50649 20.37883 36115 ft 419 kts 343°
2026-05-04 15:43 38.56299 20.36057 36117 ft 419 kts 343°
2026-05-04 15:43 38.61954 20.34225 36116 ft 419 kts 343°
2026-05-04 15:44 38.67595 20.32396 36116 ft 419 kts 343°
2026-05-04 15:44 38.73247 20.30560 36117 ft 419 kts 343°
2026-05-04 15:45 38.78903 20.28720 36115 ft 419 kts 343°
2026-05-04 15:45 38.84560 20.26877 36114 ft 420 kts 343°
2026-05-04 15:46 38.90221 20.25028 36111 ft 420 kts 343°
2026-05-04 15:46 38.95878 20.23172 36109 ft 420 kts 343°
2026-05-04 15:47 39.01545 20.21309 36110 ft 420 kts 343°
2026-05-04 15:47 39.07217 20.19445 36106 ft 421 kts 343°
2026-05-04 15:48 39.12894 20.17579 36102 ft 421 kts 343°
2026-05-04 15:48 39.21403 20.14777 36101 ft 421 kts 343°
2026-05-04 15:49 39.27047 20.12916 36102 ft 421 kts 344°
2026-05-04 15:49 39.32716 20.11043 36103 ft 421 kts 344°
2026-05-04 15:50 39.38408 20.09152 36099 ft 421 kts 343°
2026-05-04 15:50 39.43827 20.06399 36095 ft 419 kts 329°
2026-05-04 15:51 39.48217 20.01461 36100 ft 421 kts 311°
2026-05-04 15:51 39.51706 19.95336 36101 ft 423 kts 307°
2026-05-04 15:52 39.55107 19.89106 36103 ft 423 kts 308°
2026-05-04 15:52 39.58575 19.82936 36103 ft 423 kts 308°
2026-05-04 15:53 39.62073 19.76800 36098 ft 423 kts 308°
2026-05-04 15:53 39.65580 19.70661 36101 ft 423 kts 308°
2026-05-04 15:54 39.69081 19.64522 36101 ft 423 kts 308°
2026-05-04 15:54 39.72577 19.58377 36099 ft 423 kts 308°
2026-05-04 15:55 39.76066 19.52229 36099 ft 423 kts 308°
2026-05-04 15:55 39.79514 19.46145 36101 ft 423 kts 308°
2026-05-04 15:56 39.83037 19.39913 36102 ft 423 kts 308°
2026-05-04 15:56 39.85939 19.34771 36102 ft 423 kts 308°
2026-05-04 15:57 39.89420 19.28594 36101 ft 423 kts 308°
2026-05-04 15:57 39.92900 19.22406 36101 ft 423 kts 308°
2026-05-04 15:58 39.96973 19.15146 36102 ft 431 kts 308°
2026-05-04 15:58 39.99934 19.09815 36105 ft 436 kts 307°
2026-05-04 15:59 40.03507 19.03381 36106 ft 438 kts 308°
2026-05-04 15:59 40.07699 18.97651 36106 ft 437 kts 320°
2026-05-04 16:00 40.12424 18.92655 36105 ft 437 kts 322°
2026-05-04 16:00 40.17146 18.87722 36098 ft 437 kts 321°
2026-05-04 16:01 40.21857 18.82688 36103 ft 437 kts 321°
2026-05-04 16:01 40.26531 18.77637 36082 ft 437 kts 320°
2026-05-04 16:02 40.31258 18.72498 36098 ft 437 kts 320°
2026-05-04 16:03 40.38257 18.64896 36104 ft 438 kts 320°
2026-05-04 16:03 40.42941 18.59795 36101 ft 438 kts 320°
2026-05-04 16:04 40.47634 18.54672 36100 ft 438 kts 320°
2026-05-04 16:04 40.54646 18.47001 36100 ft 439 kts 320°
2026-05-04 16:05 40.59337 18.41856 36098 ft 438 kts 320°
2026-05-04 16:06 40.66304 18.34045 36102 ft 439 kts 317°
2026-05-04 16:07 40.74871 18.22572 36103 ft 439 kts 314°
2026-05-04 16:08 40.83403 18.11035 36102 ft 439 kts 315°
2026-05-04 16:09 40.94084 17.96602 36098 ft 439 kts 314°
2026-05-04 16:10 41.02625 17.85008 36100 ft 440 kts 314°
2026-05-04 16:11 41.11159 17.73377 36106 ft 440 kts 314°
2026-05-04 16:12 41.23937 17.55869 36110 ft 440 kts 314°
2026-05-04 16:13 41.32397 17.44152 36104 ft 441 kts 314°
2026-05-04 16:14 41.40898 17.32398 36104 ft 441 kts 314°
2026-05-04 16:16 41.51532 17.17635 36110 ft 442 kts 314°
2026-05-04 16:17 41.62151 17.02817 36107 ft 441 kts 314°
2026-05-04 16:18 41.70622 16.90941 36103 ft 441 kts 314°
2026-05-04 16:19 41.81185 16.76061 36104 ft 441 kts 314°
2026-05-04 16:20 41.91691 16.61108 36099 ft 441 kts 314°
2026-05-04 16:22 42.02206 16.46146 36097 ft 441 kts 314°
2026-05-04 16:23 42.14830 16.28081 36097 ft 442 kts 314°
2026-05-04 16:25 42.27451 16.09908 36088 ft 443 kts 313°
2026-05-04 16:26 42.42064 15.88671 36088 ft 444 kts 313°
2026-05-04 16:28 42.52704 15.73539 36087 ft 444 kts 316°
2026-05-04 16:29 42.68372 15.53547 36086 ft 445 kts 316°
2026-05-04 16:31 42.79604 15.39068 36086 ft 445 kts 316°
2026-05-04 16:32 42.93089 15.21583 36079 ft 446 kts 316°
2026-05-04 16:33 43.02058 15.09894 36081 ft 446 kts 316°
2026-05-04 16:34 43.08696 15.01211 36087 ft 446 kts 316°
2026-05-04 16:35 43.22047 14.83575 36087 ft 447 kts 316°
2026-05-04 16:36 43.28730 14.74746 36080 ft 447 kts 316°
2026-05-04 16:37 43.35387 14.65927 36078 ft 447 kts 316°
2026-05-04 16:38 43.44292 14.54082 36088 ft 448 kts 315°
2026-05-04 16:39 43.55473 14.39138 36077 ft 448 kts 315°
2026-05-04 16:40 43.64402 14.27145 36083 ft 449 kts 315°
2026-05-04 16:41 43.75524 14.12063 36077 ft 449 kts 315°
2026-05-04 16:43 43.86669 13.96913 36071 ft 449 kts 315°
2026-05-04 16:43 43.93328 13.87836 36072 ft 449 kts 315°
2026-05-04 16:45 44.05936 13.70604 36067 ft 450 kts 317°
2026-05-04 16:46 44.18432 13.57333 36072 ft 451 kts 322°
2026-05-04 16:47 44.28483 13.46950 36083 ft 451 kts 322°
2026-05-04 16:48 44.38541 13.36454 36074 ft 451 kts 322°
2026-05-04 16:49 44.48587 13.25927 36069 ft 450 kts 322°
2026-05-04 16:50 44.58598 13.15393 36069 ft 450 kts 322°
2026-05-04 16:51 44.66100 13.07468 36062 ft 450 kts 322°
2026-05-04 16:52 44.76062 12.96874 36059 ft 448 kts 321°
2026-05-04 16:53 44.83501 12.88915 36057 ft 448 kts 321°
2026-05-04 16:54 44.93396 12.78334 36054 ft 448 kts 321°
2026-05-04 16:55 45.08216 12.62407 36050 ft 446 kts 321°
2026-05-04 16:56 45.20543 12.49077 36047 ft 445 kts 321°
2026-05-04 16:57 45.27782 12.41214 36044 ft 444 kts 321°
2026-05-04 16:58 45.37537 12.30578 36051 ft 444 kts 321°
2026-05-04 17:00 45.51899 12.14755 36046 ft 442 kts 320°
2026-05-04 17:01 45.63874 12.01544 36048 ft 441 kts 320°
2026-05-04 17:02 45.73333 11.91058 36049 ft 440 kts 320°
2026-05-04 17:03 45.80549 11.83027 36064 ft 440 kts 320°
2026-05-04 17:03 45.87792 11.74939 36090 ft 441 kts 320°
2026-05-04 17:04 45.98188 11.65792 36109 ft 446 kts 332°
2026-05-04 17:05 46.09387 11.58204 36118 ft 448 kts 331°
2026-05-04 17:06 46.17717 11.52390 36117 ft 449 kts 331°
2026-05-04 17:07 46.25206 11.47126 36049 ft 450 kts 331°
2026-05-04 17:07 46.31737 11.42525 36021 ft 451 kts 331°
2026-05-04 17:08 46.40224 11.36529 35993 ft 452 kts 331°
2026-05-04 17:09 46.45930 11.32499 35994 ft 453 kts 332°
2026-05-04 17:09 46.51668 11.28697 35997 ft 454 kts 333°
2026-05-04 17:10 46.66036 11.19465 36039 ft 457 kts 333°
2026-05-04 17:11 46.71847 11.15702 36056 ft 457 kts 333°
2026-05-04 17:12 46.80564 11.10039 36072 ft 458 kts 333°
2026-05-04 17:13 46.95050 11.00549 36014 ft 460 kts 333°
2026-05-04 17:14 47.06725 10.92866 36018 ft 461 kts 333°
2026-05-04 17:15 47.15513 10.87058 36007 ft 462 kts 333°
2026-05-04 17:16 47.26865 10.79523 35989 ft 464 kts 333°
2026-05-04 17:17 47.38505 10.71734 35980 ft 463 kts 330°
2026-05-04 17:18 47.49052 10.61405 35988 ft 461 kts 321°
2026-05-04 17:19 47.59314 10.50645 35982 ft 462 kts 322°
2026-05-04 17:20 47.69588 10.39990 35971 ft 463 kts 322°
2026-05-04 17:20 47.77126 10.32017 35960 ft 463 kts 319°
2026-05-04 17:21 47.87021 10.19936 35965 ft 463 kts 317°
2026-05-04 17:22 47.91895 10.13920 35966 ft 463 kts 317°
2026-05-04 17:23 48.01843 10.01672 35963 ft 464 kts 317°
2026-05-04 17:24 48.09279 9.92481 35940 ft 465 kts 317°
2026-05-04 17:25 48.19042 9.80361 35939 ft 466 kts 317°
2026-05-04 17:26 48.28904 9.68052 35945 ft 467 kts 317°
2026-05-04 17:27 48.41276 9.52290 35954 ft 468 kts 316°
2026-05-04 17:28 48.51087 9.39651 35958 ft 469 kts 316°
2026-05-04 17:29 48.65602 9.20871 35971 ft 470 kts 316°
2026-05-04 17:31 48.77155 9.05814 35972 ft 472 kts 315°
2026-05-04 17:32 48.89533 8.89578 35970 ft 472 kts 315°
2026-05-04 17:33 48.99434 8.76469 35971 ft 472 kts 315°
2026-05-04 17:34 49.09349 8.63247 35975 ft 472 kts 315°
2026-05-04 17:35 49.21714 8.46738 35974 ft 472 kts 315°
2026-05-04 17:36 49.26661 8.40101 35973 ft 473 kts 314°
2026-05-04 17:36 49.31528 8.33550 35972 ft 473 kts 314°
2026-05-04 17:37 49.36485 8.26863 35972 ft 473 kts 314°
2026-05-04 17:37 49.41441 8.20158 35976 ft 473 kts 314°
2026-05-04 17:38 49.46369 8.13472 35977 ft 473 kts 314°
2026-05-04 17:38 49.51259 8.06820 35982 ft 473 kts 314°
2026-05-04 17:39 49.58644 7.96733 35982 ft 474 kts 314°
2026-05-04 17:39 49.63558 7.89937 35974 ft 472 kts 314°
2026-05-04 17:40 49.68393 7.83258 35977 ft 471 kts 314°
2026-05-04 17:40 49.73240 7.76577 35601 ft 459 kts 313°
2026-05-04 17:41 49.75557 7.73384 35014 ft 451 kts 313°
2026-05-04 17:41 49.77870 7.70192 34408 ft 444 kts 313°
2026-05-04 17:41 49.80181 7.66995 33783 ft 442 kts 313°
2026-05-04 17:41 49.82474 7.63810 33102 ft 444 kts 313°
2026-05-04 17:42 49.84707 7.60703 32454 ft 446 kts 313°
2026-05-04 17:42 49.87006 7.57502 31826 ft 448 kts 313°
2026-05-04 17:42 49.89321 7.54276 31193 ft 450 kts 313°
2026-05-04 17:42 49.91616 7.51074 30585 ft 452 kts 313°
2026-05-04 17:43 49.93925 7.47851 29976 ft 454 kts 313°
2026-05-04 17:43 49.96299 7.44534 29284 ft 455 kts 313°
2026-05-04 17:43 49.98668 7.41220 28582 ft 456 kts 313°
2026-05-04 17:43 50.01021 7.37915 27906 ft 457 kts 313°
2026-05-04 17:44 50.03255 7.34502 27273 ft 455 kts 308°
2026-05-04 17:44 50.05245 7.30652 26626 ft 451 kts 300°
2026-05-04 17:44 50.06790 7.26439 25998 ft 446 kts 290°
2026-05-04 17:44 50.07849 7.21967 25388 ft 438 kts 282°
2026-05-04 17:45 50.08435 7.17353 24785 ft 430 kts 274°
2026-05-04 17:45 50.08695 7.12746 24192 ft 426 kts 271°
2026-05-04 17:45 50.08836 7.08148 23604 ft 422 kts 270°
2026-05-04 17:45 50.08955 7.03605 23076 ft 418 kts 270°
2026-05-04 17:46 50.09085 6.99094 22670 ft 417 kts 270°
2026-05-04 17:46 50.09234 6.94624 22273 ft 415 kts 271°
2026-05-04 17:46 50.09394 6.90181 22034 ft 412 kts 270°
2026-05-04 17:46 50.09446 6.85807 21997 ft 411 kts 267°
2026-05-04 17:47 50.09393 6.81373 21985 ft 410 kts 266°
2026-05-04 17:47 50.09297 6.76926 21978 ft 411 kts 266°
2026-05-04 17:47 50.09191 6.72501 21977 ft 410 kts 265°
2026-05-04 17:47 50.09086 6.68042 21983 ft 410 kts 266°
2026-05-04 17:48 50.08985 6.63628 21980 ft 410 kts 266°
2026-05-04 17:48 50.08887 6.59152 21980 ft 410 kts 266°
2026-05-04 17:48 50.08792 6.54714 21981 ft 410 kts 266°
2026-05-04 17:48 50.08696 6.50278 21978 ft 410 kts 266°
2026-05-04 17:49 50.08602 6.45919 21977 ft 410 kts 266°
2026-05-04 17:49 50.08502 6.41505 21974 ft 410 kts 266°
2026-05-04 17:49 50.08395 6.37048 21982 ft 410 kts 265°
2026-05-04 17:49 50.08287 6.32611 21978 ft 410 kts 265°
2026-05-04 17:50 50.08178 6.28197 21983 ft 410 kts 265°
2026-05-04 17:50 50.08068 6.23739 21981 ft 410 kts 265°
2026-05-04 17:50 50.07958 6.19311 21986 ft 410 kts 265°
2026-05-04 17:50 50.07851 6.14967 21986 ft 410 kts 265°
2026-05-04 17:51 50.07786 6.10553 21991 ft 410 kts 267°
2026-05-04 17:51 50.07790 6.06047 21989 ft 410 kts 268°
2026-05-04 17:51 50.07827 6.01694 21992 ft 411 kts 269°
2026-05-04 17:51 50.08047 5.97165 21995 ft 413 kts 276°
2026-05-04 17:52 50.08649 5.93018 21996 ft 416 kts 285°
2026-05-04 17:52 50.09834 5.88822 21998 ft 421 kts 297°
2026-05-04 17:52 50.11558 5.85102 22000 ft 426 kts 309°
2026-05-04 17:52 50.13759 5.81985 21999 ft 431 kts 321°
2026-05-04 17:53 50.16355 5.79592 21998 ft 436 kts 333°
2026-05-04 17:53 50.19179 5.78070 21998 ft 440 kts 345°
2026-05-04 17:53 50.22251 5.77440 21997 ft 443 kts 356°
2026-05-04 17:53 50.25341 5.77590 22004 ft 445 kts
2026-05-04 17:54 50.28377 5.78063 22000 ft 446 kts
2026-05-04 17:54 50.31549 5.78655 21996 ft 445 kts
2026-05-04 17:54 50.34563 5.79205 21993 ft 445 kts
2026-05-04 17:54 50.37628 5.79720 21994 ft 444 kts
2026-05-04 17:55 50.40666 5.80033 21986 ft 443 kts 358°
2026-05-04 17:55 50.43679 5.79656 21980 ft 440 kts 347°
2026-05-04 17:55 50.46689 5.78388 21986 ft 437 kts 339°
2026-05-04 17:55 50.49534 5.76722 21981 ft 437 kts 336°
2026-05-04 17:56 50.52357 5.74918 21735 ft 439 kts 335°
2026-05-04 17:56 50.55111 5.73151 20833 ft 433 kts 336°
2026-05-04 17:56 50.57849 5.71198 19947 ft 427 kts 328°
2026-05-04 17:56 50.60194 5.68360 19133 ft 417 kts 313°
2026-05-04 17:57 50.62103 5.64955 18441 ft 413 kts 307°
2026-05-04 17:57 50.63817 5.61423 17731 ft 409 kts 305°
2026-05-04 17:57 50.65503 5.57842 17055 ft 404 kts 305°
2026-05-04 17:57 50.67074 5.54538 16453 ft 404 kts 306°
2026-05-04 17:58 50.68651 5.51285 15866 ft 398 kts 307°
2026-05-04 17:58 50.70331 5.47876 15260 ft 393 kts 308°
2026-05-04 17:58 50.71998 5.44530 14682 ft 389 kts 308°
2026-05-04 17:58 50.73670 5.41190 14094 ft 385 kts 308°
2026-05-04 17:59 50.75336 5.37871 13475 ft 382 kts 309°
2026-05-04 17:59 50.76975 5.34607 12864 ft 377 kts 309°
2026-05-04 17:59 50.80009 5.28555 11779 ft 367 kts 309°
2026-05-04 18:00 50.81571 5.25433 11361 ft 353 kts 309°
2026-05-04 18:00 50.83048 5.22475 11153 ft 331 kts 309°
2026-05-04 18:00 50.84425 5.19714 11058 ft 308 kts 309°
2026-05-04 18:00 50.85664 5.17093 10988 ft 289 kts 304°
2026-05-04 18:01 50.86515 5.14344 10889 ft 273 kts 288°
2026-05-04 18:01 50.86813 5.11402 10784 ft 273 kts 270°
2026-05-04 18:01 50.86684 5.09506 10724 ft 273 kts 258°
2026-05-04 18:02 50.85400 5.03324 10167 ft 272 kts 250°
2026-05-04 18:02 50.84781 5.00666 9717 ft 271 kts 250°
2026-05-04 18:02 50.84142 4.97909 9215 ft 259 kts 251°
2026-05-04 18:02 50.83546 4.95314 8813 ft 245 kts 251°
2026-05-04 18:03 50.82971 4.92791 8414 ft 242 kts 251°
2026-05-04 18:03 50.82406 4.90305 8032 ft 240 kts 251°
2026-05-04 18:03 50.82035 4.88662 7780 ft 239 kts 251°
2026-05-04 18:03 50.81341 4.85594 7343 ft 238 kts 251°
2026-05-04 18:04 50.80765 4.83044 6984 ft 234 kts 250°
2026-05-04 18:04 50.80242 4.80728 6642 ft 219 kts 250°
2026-05-04 18:04 50.79155 4.76523 5933 ft 202 kts 230°
2026-05-04 18:05 50.78026 4.75345 5629 ft 192 kts 199°
2026-05-04 18:05 50.76725 4.74617 5538 ft 199 kts 199°
2026-05-04 18:05 50.75428 4.73891 5325 ft 197 kts 199°
2026-05-04 18:05 50.74134 4.73168 5169 ft 197 kts 199°
2026-05-04 18:06 50.71571 4.71672 4724 ft 200 kts 209°
2026-05-04 18:06 50.70631 4.70093 4186 ft 196 kts 247°
2026-05-04 18:06 50.70488 4.68014 3744 ft 191 kts 285°
2026-05-04 18:07 50.71146 4.66271 3502 ft 187 kts 315°
2026-05-04 18:07 50.72038 4.64765 3274 ft 184 kts 313°
2026-05-04 18:07 50.72864 4.63319 2984 ft 172 kts 313°
2026-05-04 18:07 50.73640 4.61938 2741 ft 164 kts 311°
2026-05-04 18:08 50.74350 4.60531 2555 ft 165 kts 308°
2026-05-04 18:08 50.75012 4.59058 2311 ft 164 kts 305°
2026-05-04 18:08 50.75628 4.57553 2086 ft 163 kts 303°
2026-05-04 18:08 50.76196 4.56049 1946 ft 161 kts 301°
2026-05-04 18:09 50.77291 4.52871 1905 ft 162 kts 298°
2026-05-04 18:09 50.78294 4.49678 2031 ft 164 kts 297°
2026-05-04 18:10 50.78893 4.48180 1816 ft 159 kts 313°
2026-05-04 18:10 50.79736 4.47055 1918 ft 159 kts 331°
2026-05-04 18:10 50.80760 4.46463 1883 ft 156 kts 353°
2026-05-04 18:10 50.81827 4.46538 1873 ft 154 kts 10°
2026-05-04 18:11 50.82895 4.46799 1888 ft 157 kts 10°
2026-05-04 18:11 50.83958 4.47175 1464 ft 155 kts 16°
2026-05-04 18:11 50.84983 4.47627 1096 ft 153 kts 15°
2026-05-04 18:11 50.86001 4.48045 687 ft 150 kts 16°
2026-05-04 18:12 50.87032 4.48462 520 ft 155 kts 15°
2026-05-04 18:12 50.88080 4.48883 362 ft 155 kts 16°
2026-05-04 18:12 50.89127 4.49314 196 ft 146 kts 16°
2026-05-04 18:12 50.89996 4.49675 141 ft 114 kts 13°
2026-05-04 18:13 50.90639 4.49935 127 ft 75 kts 13°
2026-05-04 18:13 50.91052 4.50105 125 ft 56 kts 10°
2026-05-04 18:13 50.91228 4.50155 122 ft 1 kts 313°
2026-05-04 18:14 50.91223 4.50138 126 ft 2 kts 242°
2026-05-04 18:14 50.91198 4.50135 125 ft 10 kts 184°
2026-05-04 18:14 50.91129 4.50126 123 ft 20 kts 187°
2026-05-04 18:15 50.90718 4.49966 126 ft 28 kts 194°
2026-05-04 18:15 50.90331 4.49809 130 ft 29 kts 194°
2026-05-04 18:15 50.90203 4.49759 137 ft 24 kts 195°
2026-05-04 18:16 50.90084 4.49575 139 ft 18 kts 240°
2026-05-04 18:16 50.90028 4.49407 138 ft 17 kts 243°
2026-05-04 18:16 50.89994 4.49302 140 ft 15 kts 242°
2026-05-04 18:17 50.89931 4.49064 143 ft 9 kts 244°
2026-05-04 18:17 50.89914 4.49007 144 ft 0 kts 242°
2026-05-04 18:17 50.89901 4.48985 144 ft 2 kts 214°
2026-05-04 18:18 50.89891 4.48985 144 ft 1 kts 180°
2026-05-04 18:18 50.89872 4.48992 145 ft 4 kts 166°
2026-05-04 18:18 50.89838 4.49015 147 ft 7 kts 155°
2026-05-04 18:18 50.89785 4.49054 150 ft 8 kts 155°
2026-05-04 18:19 50.89769 4.49066 151 ft 0 kts 155°